This is the latest recevied weather packets stored in our database for station/object AD8BV. If no packets are shown the sender has not sent any weather packets the latest 10 day(s).
| Time | Temp. | Humidity | Pressure | Rain* | Wind** | Luminosity | Snow |
|---|---|---|---|---|---|---|---|
| 1777948332 | 18.89° C | 71% | 1002.1 hPa | 0 mm | - | 0 W/m² | - |
| 1777948030 | 18.89° C | 73% | 1002 hPa | 0 mm | - | 0 W/m² | - |
| 1777947726 | 19.44° C | 70% | 1001.8 hPa | 0 mm | - | 0 W/m² | - |
| 1777947423 | 19.44° C | 70% | 1001.8 hPa | 0 mm | - | 0 W/m² | - |
| 1777947120 | 19.44° C | 70% | 1001.6 hPa | 0 mm | - | 0 W/m² | - |
| 1777946816 | 18.89° C | 71% | 1001.7 hPa | 0 mm | - | 0 W/m² | - |
| 1777946511 | 18.89° C | 70% | 1001.7 hPa | 0 mm | - | 0 W/m² | - |
| 1777946209 | 18.89° C | 72% | 1001.6 hPa | 0 mm | - | 0 W/m² | - |
| 1777945905 | 18.33° C | 74% | 1001.2 hPa | 0 mm | - | 0 W/m² | - |
| 1777945602 | 18.89° C | 74% | 1001.2 hPa | 0 mm | - | 0 W/m² | - |
| 1777945299 | 18.33° C | 74% | 1001.2 hPa | 0 mm | - | 0 W/m² | - |
| 1777944997 | 18.33° C | 75% | 1001.3 hPa | 0 mm | - | 0 W/m² | - |
| 1777944694 | 18.33° C | 76% | 1001.1 hPa | 0 mm | - | 0 W/m² | - |
| 1777944392 | 17.78° C | 76% | 1001.1 hPa | 0 mm | - | 0 W/m² | - |
| 1777944088 | 17.78° C | 76% | 1001 hPa | 0 mm | - | 0 W/m² | - |
| 1777943784 | 17.78° C | 79% | 1001.1 hPa | 0 mm | - | 0 W/m² | - |
| 1777943482 | 16.67° C | 83% | 1001.1 hPa | 0 mm | - | 0 W/m² | - |
| 1777943177 | 16.11° C | 85% | 1001.3 hPa | 0 mm | - | 0 W/m² | - |
| 1777942874 | 16.67° C | 86% | 1001.1 hPa | 0 mm | - | 0 W/m² | - |
| 1777942570 | 16.67° C | 87% | 1001.4 hPa | 0 mm | - | 0 W/m² | - |
| 1777942267 | 17.22° C | 86% | 1001.1 hPa | 4.32 mm | - | 0 W/m² | - |
| 1777941964 | 18.33° C | 80% | 1000.9 hPa | 4.32 mm | - | 0 W/m² | - |
| 1777941661 | 20° C | 66% | 1001.2 hPa | 0 mm | - | 1 W/m² | - |
| 1777941358 | 20° C | 66% | 1001 hPa | 0 mm | - | 2 W/m² | - |
| 1777941055 | 20° C | 67% | 1000.9 hPa | 0 mm | - | 4 W/m² | - |
* Rain latest hour (hover to see other rain measurements)
** Current wind speed in m/s (hover to see current wind gust speed)